Regional Weather Roundup
Issued by NWS Grand Forks, ND

Home | Current Version | Previous Version | Graphics & Text | Print | Product List | Glossary On
Versions: 1 2 3 4 5 6 7 8 9 10 11 12 13 14 15 16 17 18 19 20 21 22 23 24 25 26 27 28 29 30 31 32 33 34 35 36 37 38 39 40 41 42 43 44 45 46 47 48 49 50
000
ASUS43 KFGF 221631
RWRFGF
PRAIRIE TO PINES  WEATHER ROUNDUP
NATIONAL WEATHER SERVICE EASTERN NORTH DAKOTA/GRAND FORKS ND
1100 AM CDT FRI AUG 22 2014

 **SATELLITE DATA USED TO AUGMENT SKY COVER AT AUTOMATED STATIONS**
 *****  WEATHER ACROSS EASTERN NORTH DAKOTA  *****

CITY           SKY/WX    TMP DP  RH WIND       PRES   REMARKS
GRAND FORKS    CLOUDY    67  64  90 N14       29.99R
GRAND FRKS AFB CLOUDY    67  66  99 N13       30.01R
GRAND FRKS NWS   N/A     61 N/A N/A N9          N/A
DEVILS LAKE    CLOUDY    66  57  72 N10       30.04R
FARGO          CLOUDY    71  68  90 N3        29.98R
WAHPETON ARPT  CLOUDY    70  66  88 NW5       29.98F
$$

 ***** WEATHER ACROSS CENTRAL AND WESTERN NORTH DAKOTA  *****

CITY           SKY/WX    TMP DP  RH WIND       PRES   REMARKS
BISMARCK       MOSUNNY   71  64  78 CALM      30.05S
MINOT          CLOUDY    61  59  93 N12       30.09R FOG
JAMESTOWN      CLOUDY    69  65  86 N7        30.02R
MINOT AFB      CLOUDY    60  60 100 NE10      30.09R
GARRISON         N/A     65  61  87 NE10      30.07R
WILLISTON      CLOUDY    65  55  70 E12       30.12R
DICKINSON      PTSUNNY   67  62  84 NE6       30.06S
HETTINGER      CLOUDY    66  59  78 N3        30.07F
$$

 *****  OTHER AIRPORT OBSERVATIONS IN OUR AREA  *****

CITY           SKY/WX    TMP DP  RH WIND       PRES   REMARKS
WALHALLA         N/A     66  66 100 N13       30.04S
GRAFTON AIRPOR CLOUDY    64  64 100 N14G20    30.00S
VALLEY CITY AR CLOUDY    68  68 100 E7        30.01R
CANDO          CLOUDY    63  59  88 N13       30.07S
CAVALIER APRT  CLOUDY    66  63  88 N10G16    30.02S
GWINNER        CLOUDY    72  72 100 NE7       30.00F
SHEYENNE NWR     N/A     72  69  91 N5        29.95S
ROLLA          CLOUDY    59  59 100 N13       30.10R
 ***** THE ABOVE OBSERVATIONS ARE NON NWS ARE NOT QUALITY
       CONTROLLED AND MAY MIS-REPORT RAIN FOR SNOW...
$$

  *****  WEATHER ACROSS NORTHERN MINNESOTA  *****

CITY           SKY/WX    TMP DP  RH WIND       PRES   REMARKS
FLAG ISLAND    PTSUNNY   70  63  78 CALM      29.99R
WARROAD        CLOUDY    70  66  88 NE5       30.00R
ROSEAU         PTSUNNY   72  66  83 NE7       29.99R
HALLOCK        CLOUDY    68  64  88 N9        29.99F
THF RVR FALLS  CLOUDY    68  66  94 NW5       29.98S
BAUDETTE       CLOUDY    67  64  90 E5        29.99S
WASKISH        PTSUNNY   72  66  83 CALM      30.00R
CROOKSTON      CLOUDY    68  66  94 N8        29.99S
$$
  *****  WEATHER ACROSS CENTRAL AND WEST MINNESOTA  *****

CITY           SKY/WX    TMP DP  RH WIND       PRES   REMARKS
FOSSTON        LGT RAIN  70  66  88 CALM      29.99R
BEMIDJI        MOSUNNY   72  64  76 CALM      29.99S
PARK RAPIDS    CLOUDY    72  65  78 E3        30.00R
ELBOW LAKE     PTSUNNY   75  70  84 W6        29.98S
WADENA         CLOUDY    72  66  83 N3        29.99R
DETROIT LAKES  MOSUNNY   75  68  78 W7        30.00R
MOORHEAD       CLOUDY    70  70 100 N5        29.99S FOG
FERGUS FALLS   MOSUNNY   73  70  88 NW3       29.97F
MORRIS MN      SUNNY     77  70  78 CALM      29.97R
STAPLES        CLOUDY    70  64  83 NW3       29.99R
$$
  *****  WEATHER ELSEWHERE ACROSS MINNESOTA  *****

CITY           SKY/WX    TMP DP  RH WIND       PRES   REMARKS
DULUTH         FOG       64  62  93 SE5       29.99R VSB 1/4
INTRNTL FALLS  CLOUDY    68  63  84 E6        29.99S
ELY            CLOUDY    66  63  88 CALM      30.00S
CLOQUET        FOG       63  61  94 CALM      30.00R VSB 1/2
WHEATON        PTSUNNY   70  70 100 CALM      29.99F
BRAINERD       CLOUDY    67  64  90 CALM      29.99R
HIBBING        CLOUDY    71  64  78 CALM      29.99S
ALEXANDRIA     MOSUNNY   78  68  71 NE7       30.00R
SAINT CLOUD    CLOUDY    74  67  78 NW7       29.98R
MINNEAPOLIS    CLOUDY    73  68  84 N6        29.96R
$$

  *****  WEATHER ACROSS SOUTH DAKOTA  *****

CITY           SKY/WX    TMP DP  RH WIND       PRES   REMARKS
SIOUX FALLS    MOSUNNY   81  70  69 NE8       29.97S
BROOKINGS      NOT AVBL
WATERTOWN      MOSUNNY   77  67  71 N6        29.99R
HURON          MOSUNNY   79  67  66 N6        29.98S
SISSETON         N/A     73  70  90 N9        29.98R
ABERDEEN       CLOUDY    69  66  90 N6        30.01S
MITCHELL       SUNNY     79  70  74 VRB3      29.98S
PIERRE         CLOUDY    73  67  81 E12       29.98F
MOBRIDGE       CLOUDY    69  65  86 NE5       30.01R
RAPID CITY     CLOUDY    65  61  87 NE5       30.08S
$$

  *****  SOME WEATHER IN NEARBY STATES *****

CITY           SKY/WX    TMP DP  RH WIND       PRES   REMARKS
GLASGOW MT     LGT RAIN  60  58  92 E15       30.11R
GREAT FALLS MT LGT RAIN  52  52 100 NE7       30.13S
CHEYENNE WY    PTSUNNY   64  53  67 SW6       30.21F
SCOTTSBLUFF NE CLOUDY    69  56  62 W7        30.11S
OMAHA NE       MOSUNNY   84  74  71 VRB5      29.92S HX  91
DES MOINES IA  PTSUNNY   82  72  71 SE5       29.94R
DAVENPORT IA   LGT RAIN  72  70  93 SE3       29.98S FOG
CHICAGO IL     CLOUDY    79  74  84 W7        29.96R
EAU CLAIRE WI  CLOUDY    76  72  87 SW6       29.93R
LA CROSSE WI   CLOUDY    78  73  84 SW3       29.93R
$$

  *****  SOME NATIONAL WEATHER *****

CITY           SKY/WX    TMP DP  RH WIND       PRES   REMARKS
LA GUARDIA NY  CLOUDY    74  59  59 NE12      30.04F
RALEIGH NC     PTSUNNY   88  72  58 NW3       30.03S HX  94
ATLANTA GA     MOSUNNY   88  72  58 N13       30.14S HX  94
NEW ORLEANS LA MOSUNNY   88  74  63 NW9       30.12S HX  96
OKLAHOMA CITY  SUNNY     91  67  44 SW20G29   30.00S HX  94
ALBUQUERQUE NM LGT RAIN  62  58  86 CALM      30.26S
SALT LAKE CITY CLOUDY    72  47  40 S14       29.99S
LOS ANGELES CA PTSUNNY   72  64  78 VRB3      29.98R
BOISE ID       MOSUNNY   66  36  32 W5        29.94R
SEATTLE WA     MOSUNNY   62  51  67 NE5       30.07R
$$

*** WEATHER ACROSS MANITOBA...SASKATCHEWAN AND ONTARIO ***
                ***ONTARIO***

CITY           SKY/WX    TMP DP  RH WIND       PRES   REMARKS
GERALDTON      MOSUNNY   75  63  64 CALM      30.03S
THUNDER BAY    LGT RAIN  63  61  94 E9        30.02R
SIOUX LOOKOUT  PTSUNNY   70  63  78 VRB6      30.02
TORONTO        PTSUNNY   72  64  78 CALM      30.01F
BIG TROUT LK   MOSUNNY   70  61  73 S3        30.00R
PICKLE LAKE    PTSUNNY   73  59  60 VRB2      30.02F
DRYDEN         CLOUDY    66  63  88 SE3       30.02S
KENORA         CLOUDY    68  63  83 SE6       30.02S
$$
                *** MANITOBA***

CITY           SKY/WX    TMP DP  RH WIND       PRES   REMARKS
BRANDON        PTSUNNY   66  55  68 NE13      30.10S
DAUPHIN        CLOUDY    61  59  94 N13G18    30.13S
ISLAND LAKE    LGT RAIN N/A N/A N/A NE7         N/A  FOG
PILOT MOUND      N/A     61  59  94 N9          N/A
THE PAS        PTSUNNY   61  52  72 N10       30.21R
THOMPSON       CLOUDY    52  48  87 N10G17    30.22S
WINNIPEG       PTSUNNY   66  63  88 N8        30.03R
LYNN LAKE      CLOUDY    50  46  87 MISG      30.30R
CHURCHILL      PTSUNNY   50  43  76 N22G28    30.24R
GILLAM         CLOUDY    48  48 100 N17       30.18R
$$
                ***SASKATCHEWAN***

CITY           SKY/WX    TMP DP  RH WIND       PRES   REMARKS
ESTEVAN        CLOUDY    61  55  82 NE13      30.14S
KINDERSLEY     PTSUNNY   55  48  76 NE10      30.27S
LLOYDMINSTER   PTSUNNY   52  43  71 NE7       30.33R
PRINCE ALBERT  PTSUNNY   61  52  72 N8        30.26S
REGINA         CLOUDY    61  54  77 NE9       30.19R
YORKTON        CLOUDY    59  52  77 N13       30.18S
N. BATTLEFORD  SUNNY     57  45  62 N9        30.32S
LA RONGE       PTSUNNY   63  50  63 NW7       30.28S
SASKATOON      PTSUNNY   59  45  58 NE16      30.26F
SWIFT CURRENT  LGT RAIN  54  52  94 NE12G17   30.21S FOG
$$
NOTE: THESE ARE AUTOMATED STATIONS WITH LIMITED QUALITY CONTROL
      "FAIR" INDICATES FEW OR NO CLOUDS BELOW 12,000 FEET WITH NO
      SIGNIFICANT WEATHER AND/OR OBSTRUCTIONS TO VISIBILITY.
      SKY/WX - SKY CONDITION AND SIGNIFICANT WEATHER.
      TMP - AIR TEMPERATURE.    DP   - DEWPOINT TEMPERATURE.
      RH  - RELATIVE HUMIDITY.  PRES - PRESSURE.
      HX  - HEAT INDEX.         WCI  - WIND CHILL INDEX.
$


USA.gov is the U.S. government's official web portal to all federal, state and local government web resources and services.